Content
SEND FEEDBACK

Daily
Averages
Monthly
Summary
Turkmenistan

KURTILE, TURKMENISTAN


Home > Asia > Turkmenistan
Elevation: 748 feet     Latitude: 37 58N     Longitude: 058 19E

WEATHER
 
SELECT A DAY
Number of Records: 183,734;   Date Range: 3/15/97 - 12/26/14
 
SHARE

PRINT THIS DATA

[ ← Previous Day ]
WEATHER ALMANAC - APRIL 24, 2013
[ Next Day → ]
[ °C ]   °F
Weather ElementAverageHighLow
Temperature60.8 °F68 °F (12:00 pm)51 °F (5:00 am)
Dewpoint48.7 °F56 °F (11:00 pm)41 °F (2:00 pm)
Humidity64.6 %90 % (11:00 pm)25 % (2:00 pm)
Barometer30.03 in30.09 in (8:00 am)29.98 in (1:00 am)
Wind Speed8.7 mph17.9 mph (5:00 am)
Wind Gust17.9 mph (4:00 pm)
Weather ElementAverage
Visibility6.1 mi
Wind DirectionWSW (246.2 °)

Weather ElementTotal
Precipitation---
Heating Degree Days5.5 (Base 65)
Growing Degree Days9.5 (Base 50)
Averaged from 34 records on April 24, 2013
WEATHER CONDITIONS BREAKOUT
WIND DIRECTION BREAKOUT
WEATHER BY HOUR - APRIL 24, 2013
[ °C ]   °F
Local TimeTemperatureDewpointHumidityBarometerVisibilityWind DirectionWind SpeedGust SpeedPrecipitationEventsConditions
1:00 AM55.4 °F48.2 °F77 %29.98 in5.0 miWest (270°)8.9 mphScattered Clouds
2:00 AM54.0 °F49.0 °F76 %29.99 in6.0 miSW (230°)4.5 mphScattered Clouds
2:00 AM57.2 °F48.2 °F72 %29.98 in6.2 miSW (230°)4.5 mphScattered Clouds
3:00 AM57.2 °F50.0 °F77 %29.98 in6.2 miWest (280°)4.5 mphMostly Cloudy
4:00 AM59.0 °F48.2 °F67 %30.01 in6.2 miWest (270°)6.7 mphMostly Cloudy
5:00 AM59.0 °F46.4 °F63 %30.01 in6.2 miWNW (300°)17.9 mphMostly Cloudy
5:00 AM51.0 °F47.0 °F83 %30.05 in6.0 miWNW (300°)17.9 mphPartly Cloudy
6:00 AM59.0 °F46.4 °F63 %30.04 in6.2 miWNW (290°)15.7 mphOvercast
7:00 AM59.0 °F44.6 °F59 %30.06 in6.2 miWNW (290°)13.4 mphOvercast
8:00 AM60.8 °F44.6 °F55 %30.06 in6.2 miWNW (290°)13.4 mphOvercast
8:00 AM60.0 °F44.0 °F45 %30.09 in6.0 miWNW (290°)13.4 mphOvercast
9:00 AM62.6 °F44.6 °F52 %30.09 in6.2 miWest (280°)13.4 mphMostly Cloudy
10:00 AM62.6 °F42.8 °F48 %30.09 in6.2 miWest (280°)8.9 mphOvercast
11:00 AM64.0 °F43.0 °F34 %30.08 in6.0 miNorth (350°)8.9 mphScattered Clouds
11:00 AM64.4 °F42.8 °F45 %30.06 in6.2 miNNW (330°)6.7 mphScattered Clouds
12:00 PM68.0 °F42.8 °F40 %30.06 in6.2 miNW (320°)4.5 mphScattered Clouds
1:00 PM66.2 °F42.8 °F43 %30.04 in6.2 miVariable2.2 mphMostly Cloudy
2:00 PM68.0 °F42.8 °F40 %30.04 in6.2 miVariable2.2 mphMostly Cloudy
2:00 PM68.0 °F41.0 °F25 %30.02 in6.0 miENE (60°)2.2 mphMostly Cloudy
3:00 PM66.2 °F46.4 °F49 %30.01 in6.2 miSouth (180°)11.2 mphMostly Cloudy
4:00 PM64.4 °F50.0 °F59 %30.01 in6.2 miSouth (190°)6.7 mph17.9 mphRainLight Rain Showers
5:00 PM63.0 °F53.0 °F60 %29.99 in6.0 miWNW (290°)6.7 mphRainLight Rain Showers
5:00 PM62.6 °F51.8 °F68 %29.98 in6.2 miWNW (290°)4.5 mphRainLight Rain Showers
5:30 PM62.6 °F53.6 °F72 %30.01 in6.2 miWNW (300°)6.7 mphRain-ThunderstormLight Thunderstorms and Rain
6:00 PM62.6 °F53.6 °F72 %30.01 in6.2 miWest (270°)11.2 mphRain-ThunderstormLight Thunderstorms and Rain
6:30 PM60.8 °F53.6 °F77 %30.01 in6.2 miWest (270°)11.2 mphRainLight Rain Showers
7:00 PM59.0 °F53.6 °F82 %30.01 in6.2 miWSW (250°)8.9 mphRainLight Rain Showers
8:00 PM59.0 °F55.0 °F82 %30.01 in6.0 miWest (260°)8.9 mphRainLight Rain Showers
8:00 PM59.0 °F53.6 °F82 %30.01 in6.2 miWest (260°)8.9 mphOvercast
9:00 PM60.8 °F53.6 °F77 %30.01 in6.2 miWest (270°)4.5 mphOvercast
10:00 PM59.0 °F55.4 °F88 %30.06 in5.0 miENE (70°)6.7 mphMostly Cloudy
11:00 PM58.0 °F56.0 °F90 %30.07 in6.0 miWest (270°)6.7 mphRainHeavy Rain Showers
11:00 PM59.0 °F55.4 °F88 %30.06 in5.6 miWest (260°)6.7 mphRainLight Rain Showers
11:30 PM57.2 °F53.6 °F88 %30.06 in6.2 miWest (280°)15.7 mphRainLight Rain Showers
Hourly data recorded from UTAA, located miles away from Kurtile, Turkmenistan







STORIES FROM OUR PARTNERS